[[{"header":{"parameterUnit":"m.s-1","parameterCategory":2,"la1":30.2991,"la2":30.254,"lo1":-89.0895,"lo2":-89.0444,"dy":0.0017,"dx":0.0017,"nx":28,"ny":28,"refTime":"2025-07-24T03:00:00:Z","depth":"0","parameterNumber":2,"parameterNumberName":"U-component_of_CURRENTS"},"data":[0,0,0,0,0,0,0,0,0,0,0,0,0,0,0,0,0,0,0,0,0,0,0,0,0,0,0,0,0,0,0,0,0,0,0,0,0,0,0,0,0,0,0,0,0,0,0,0,0,0,0,0,0,0,0,0,0,0,0.1345,0.1345,0,0.1352,0.1352,0.1352,0.1344,0.1343,0.1343,0.1343,0.1343,0.1343,0.1344,0,0,0,0,0,0,0,0,0,0,0,0,0,0.1357,0.1357,0.1345,0.1345,0.1346,0.1352,0.1352,0.1352,0.1344,0.1343,0.1343,0.1343,0.1343,0.1343,0.1344,0,0,0,0,0,0,0,0,0,0,0,0,0,0.1357,0.1356,0.1345,0.1342,0.1342,0.1352,0.1352,0.1352,0.1344,0.1343,0.1343,0.1342,0.1343,0.1343,0.1344,0.1356,0,0,0.1345,0.1345,0,0,0,0,0,0,0,0,0.1357,0.1356,0.1342,0.1342,0.1342,0.1346,0.1356,0.1353,0.1344,0.1343,0.1343,0.1342,0.1344,0.1344,0.1347,0.1356,0.1356,0.1345,0.1346,0.1346,0.1346,0,0,0,0,0,0,0,0.1357,0.1356,0.1348,0.1343,0.1342,0.1351,0.135,0.1356,0.1346,0.1343,0.1343,0.1343,0.1343,0.1346,0.1347,0.1356,0.1345,0.1346,0.1346,0.1346,0.1464,0.1466,0,0,0,0,0,0,0.1354,0.1356,0.1348,0.1348,0.1348,0.1351,0.135,0.1346,0.1346,0.1346,0.1344,0.1343,0.1346,0.1346,0.1347,0.1419,0.1346,0.1346,0.1346,0.1461,0.1464,0.1467,0,0,0,0,0,0,0.1354,0.1353,0.1348,0.1352,0.1352,0.1351,0.1346,0.1346,0.1347,0.1346,0.1346,0.1345,0.1346,0.1346,0.1359,0.1416,0.1346,0.1347,0.1458,0.1462,0.1466,0.1526,0,0,0,0,0,0,0.1354,0.1353,0.1351,0.1352,0.1352,0.1357,0.1347,0.1346,0.1348,0.1347,0.1348,0.1347,0.1345,0.1359,0.136,0.1416,0.1347,0.1454,0.146,0.1465,0.152,0.1532,0.1541,0,0,0,0,0,0.1355,0.1354,0.1351,0.135,0.1348,0.1357,0.1359,0.1356,0.1349,0.1355,0.1358,0.1347,0.1395,0.136,0.1361,0.1418,0.1451,0.1458,0.1464,0.1516,0.1529,0.1541,0,0,0,0,0,0,0.136,0.1354,0.1349,0.1347,0.1353,0.1356,0.1362,0.1358,0.1364,0.1366,0.1359,0.136,0.1403,0.1401,0.1363,0.1474,0.1432,0.1439,0.1471,0.1484,0.1495,0.1524,0.1348,0,0,0,0,0,0.1359,0.1357,0.1356,0.1357,0.136,0.1361,0.1364,0.1365,0.137,0.1372,0.1371,0.1392,0.1432,0.1445,0.1467,0.1507,0.1551,0.1556,0.1567,0.1575,0.1604,0.1762,0.179,0.1488,0.1488,0.1488,0,0,0.1361,0.1359,0.1357,0.1358,0.1363,0.1387,0.1362,0.1373,0.1405,0.1372,0.1407,0.1418,0.145,0.1507,0.1529,0.1508,0.167,0.1583,0.159,0.1615,0.1772,0.1802,0.1828,0.1493,0.1492,0.1491,0,0,0.1378,0.1364,0.1375,0.1385,0.1396,0.1402,0.1405,0.141,0.1424,0.145,0.1461,0.1504,0.1527,0.1584,0.1613,0.1697,0.1719,0.1707,0.1784,0.1937,0.1964,0.1988,0.2016,0.2043,0.1716,0.1716,0.1716,0,0.1384,0.1405,0.1382,0.1406,0.1433,0.1412,0.1454,0.1464,0.1474,0.1517,0.147,0.1581,0.158,0.1711,0.1734,0.1724,0.1777,0.1725,0.1953,0.1978,0.2002,0.2026,0.2054,0.1719,0.1719,0.1719,0.1718,0,0.1417,0.1443,0.1455,0.1484,0.15,0.1533,0.1547,0.1571,0.1575,0.1603,0.1701,0.1707,0.179,0.1797,0.178,0.1961,0.1927,0.1943,0.1918,0.2036,0.2052,0.2081,0.1725,0.1723,0.1722,0.1721,0,0,0.1423,0.1473,0.1481,0.1529,0.1555,0.1581,0.1636,0.1711,0.1775,0.1788,0.1899,0.1952,0.1964,0.2001,0.2005,0.2111,0.2272,0.2096,0.2103,0.2118,0.2544,0.2287,0.2292,0.2348,0.2355,0.236,0.2464,0,0.1473,0.1551,0.1559,0.1649,0.1702,0.1717,0.1779,0.1837,0.1871,0.1959,0.2018,0.2105,0.2044,0.2087,0.2193,0.2269,0.2363,0.2238,0.2435,0.2438,0.2194,0.2324,0.2119,0.2178,0.2491,0.2496,0.25,0,0.1518,0.1573,0.1675,0.1775,0.1798,0.1842,0.1958,0.2005,0.2116,0.215,0.2248,0.2278,0.2421,0.2352,0.2561,0.2491,0.2532,0.2566,0.2572,0.2343,0.2238,0.2127,0.2218,0.2087,0.2543,0.254,0.2537,0,0.1575,0.1661,0.176,0.179,0.1884,0.1945,0.1988,0.2079,0.2145,0.2281,0.234,0.25,0.2564,0.2706,0.2712,0.269,0.2909,0.2897,0.2697,0.2674,0.2542,0.2495,0.2531,0.3083,0.3083,0.3082,0.3082,0,0.1653,0.1734,0.1793,0.1858,0.1976,0.2002,0.2128,0.2186,0.2285,0.237,0.2445,0.2525,0.2669,0.2766,0.2808,0.2801,0.2998,0.2734,0.272,0.2541,0.2496,0.2405,0.2362,0.3086,0.3085,0.3085,0.3084,0,0.1742,0.1772,0.1897,0.1994,0.2016,0.2105,0.2194,0.2273,0.2341,0.2452,0.2505,0.2607,0.2694,0.2765,0.2941,0.2865,0.2799,0.2874,0.2564,0.2509,0.2138,0.2104,0.2113,0.2063,0.2695,0.269,0.2686,0,0.1814,0.1884,0.1996,0.2051,0.2104,0.22,0.2258,0.2317,0.2366,0.2473,0.2524,0.2619,0.2648,0.2731,0.2647,0.2651,0.2624,0.2426,0.2345,0.21,0.2061,0.203,0.1991,0.2185,0.2177,0.217,0.2165,0,0.1972,0.2003,0.21,0.2186,0.2252,0.2303,0.2359,0.2393,0.2433,0.2487,0.2524,0.256,0.2528,0.2392,0.2303,0.2282,0.2224,0.2278,0.2199,0.1796,0.1611,0.1557,0.2049,0.2105,0.2111,0.2116,0.2119,0.2121,0.21,0.2184,0.2267,0.2338,0.2377,0.2356,0.2357,0.237,0.2389,0.2372,0.2451,0.2391,0.2191,0.2007,0.1951,0.1608,0.1769,0.1508,0.1525,0.1545,0.1385,0.1641,0.156,0.1562,0.1565,0.1567,0.1569,0,0.2261,0.2314,0.2396,0.244,0.2427,0.2415,0.2384,0.2322,0.2261,0.2241,0.2227,0.1948,0.1697,0.1505,0.1085,0.09,0.0932,0.0848,0.0836,0.0871,0.1251,0.1106,0.0712,0.0712,0.0712,0.0712,0.0712,0.0713,0.2364,0.2462,0.2461,0.2447,0.243,0.2331,0.2263,0.2159,0.208,0.187,0.1679,0.1609,0.1304,0.0814,0.0437,0.0395,0.0382,0.0269,0.0395,0.0676,0.0742,0.0805,0.0661,0.018,0.0179,-0.0034,-0.0036,-0.0038]},{"header":{"parameterUnit":"m.s-1","parameterCategory":2,"la1":30.2991,"la2":30.254,"lo1":-89.0895,"lo2":-89.0444,"dy":0.0017,"dx":0.0017,"nx":28,"ny":28,"refTime":"2025-07-24T03:00:00:Z","depth":"0","parameterNumber":3,"parameterNumberName":"V-component_of_CURRENTS"},"data":[0,0,0,0,0,0,0,0,0,0,0,0,0,0,0,0,0,0,0,0,0,0,0,0,0,0,0,0,0,0,0,0,0,0,0,0,0,0,0,0,0,0,0,0,0,0,0,0,0,0,0,0,0,0,0,0,0,0,0.0126,0.0126,0,0.0168,0.0168,0.0169,0.0181,0.0181,0.0181,0.0181,0.02,0.02,0.0201,0,0,0,0,0,0,0,0,0,0,0,0,0,0.0064,0.0065,0.0126,0.0126,0.0127,0.0168,0.0168,0.0169,0.0181,0.0181,0.0181,0.0181,0.0199,0.02,0.0201,0,0,0,0,0,0,0,0,0,0,0,0,0,0.0096,0.0065,0.0126,0.0138,0.014,0.0168,0.0168,0.0169,0.0181,0.0181,0.0181,0.018,0.0199,0.02,0.0201,0.0213,0,0,0.0204,0.0205,0,0,0,0,0,0,0,0,0.0094,0.0098,0.0136,0.0138,0.0139,0.0169,0.0153,0.0183,0.0181,0.0165,0.0181,0.018,0.0188,0.019,0.0198,0.0214,0.0214,0.0204,0.0205,0.0205,0.0206,0,0,0,0,0,0,0,0.0092,0.0097,0.0142,0.0137,0.0139,0.0145,0.0149,0.0159,0.0177,0.0166,0.0168,0.0173,0.0189,0.0197,0.0198,0.0215,0.0204,0.0205,0.0206,0.0206,0.0325,0.0327,0,0,0,0,0,0,0.0088,0.0095,0.0141,0.0143,0.0116,0.0146,0.0151,0.016,0.0177,0.018,0.0173,0.0174,0.0195,0.0197,0.0199,0.0285,0.0205,0.0206,0.0207,0.0322,0.0325,0.0328,0,0,0,0,0,0,0.0087,0.0092,0.0139,0.012,0.0126,0.0147,0.0157,0.0161,0.017,0.0183,0.0185,0.0179,0.0195,0.0198,0.0227,0.0283,0.0207,0.0208,0.0319,0.0323,0.0327,0.041,0,0,0,0,0,0,0.0085,0.0091,0.0096,0.012,0.0127,0.0163,0.0158,0.0162,0.0174,0.0175,0.0188,0.019,0.0195,0.0226,0.0228,0.0283,0.0208,0.0316,0.0321,0.0325,0.0404,0.0416,0.0427,0,0,0,0,0,0.0082,0.0093,0.0096,0.0101,0.0133,0.0164,0.0169,0.0182,0.0174,0.0187,0.0203,0.0189,0.0259,0.0228,0.0231,0.0286,0.0314,0.032,0.0325,0.0399,0.0414,0.0426,0,0,0,0,0,0,0.0069,0.0096,0.0099,0.0118,0.0141,0.0166,0.0178,0.0182,0.0204,0.0204,0.0208,0.0212,0.0264,0.0261,0.0227,0.0338,0.029,0.0296,0.0345,0.0359,0.037,0.0391,0.0209,0,0,0,0,0,0.0067,0.0083,0.011,0.0124,0.0137,0.0155,0.0167,0.0178,0.0199,0.0208,0.0222,0.0248,0.029,0.0309,0.0334,0.0382,0.0376,0.0425,0.0437,0.0446,0.0467,0.0524,0.0543,0.0347,0.0347,0.0347,0,0,0.0066,0.0083,0.0091,0.0122,0.014,0.0182,0.0162,0.0186,0.0232,0.0207,0.0266,0.0277,0.0309,0.0376,0.04,0.038,0.049,0.0454,0.0461,0.0478,0.0532,0.0551,0.0568,0.0351,0.035,0.0349,0,0,0.0084,0.0087,0.0114,0.014,0.0171,0.0192,0.0199,0.023,0.0254,0.0304,0.0315,0.0366,0.0403,0.0461,0.0491,0.0579,0.0542,0.0578,0.066,0.0715,0.0732,0.0746,0.0719,0.0731,0.0591,0.0592,0.0592,0,0.0081,0.0124,0.0126,0.0168,0.0201,0.0201,0.0252,0.0283,0.0322,0.0363,0.0334,0.0446,0.0461,0.0581,0.0616,0.0609,0.0595,0.0602,0.073,0.0744,0.0758,0.0727,0.0739,0.0596,0.0596,0.0595,0.0595,0,0.0132,0.0169,0.0188,0.0248,0.0279,0.0318,0.0364,0.0402,0.0421,0.046,0.0556,0.0583,0.0659,0.0675,0.0672,0.0793,0.0733,0.0729,0.0692,0.0782,0.0743,0.0754,0.0603,0.0601,0.06,0.0599,0,0,0.0129,0.0209,0.0219,0.0266,0.0327,0.0363,0.0444,0.0531,0.0604,0.0637,0.0745,0.0817,0.0822,0.0858,0.0866,0.0915,0.0981,0.0863,0.0864,0.0828,0.1039,0.0994,0.0999,0.0992,0.0996,0.0998,0.0956,0,0.0175,0.0266,0.0298,0.0396,0.0451,0.049,0.0573,0.0648,0.0707,0.0807,0.0859,0.0951,0.0897,0.0942,0.0986,0.1004,0.102,0.0989,0.0964,0.0962,0.0907,0.1017,0.1029,0.0994,0.0966,0.0968,0.0969,0,0.0231,0.0283,0.0381,0.0491,0.052,0.0577,0.0712,0.0786,0.0918,0.0968,0.1057,0.109,0.1193,0.1123,0.1177,0.1153,0.1102,0.1084,0.1082,0.1028,0.0941,0.091,0.1014,0.1053,0.0985,0.0984,0.0983,0,0.025,0.0353,0.0433,0.0468,0.0583,0.0642,0.0708,0.0835,0.0931,0.1076,0.1162,0.1251,0.1319,0.1305,0.1259,0.1228,0.1283,0.1238,0.1131,0.1122,0.1126,0.1114,0.1269,0.126,0.126,0.126,0.126,0,0.0307,0.0374,0.0444,0.0491,0.0601,0.0666,0.0805,0.0888,0.1036,0.1168,0.1241,0.1357,0.1373,0.1402,0.132,0.1266,0.1327,0.1171,0.1143,0.1148,0.1139,0.1164,0.1152,0.1259,0.1259,0.1259,0.126,0,0.0345,0.0386,0.0482,0.0582,0.0617,0.0697,0.0854,0.097,0.1084,0.1263,0.132,0.1464,0.1503,0.1466,0.145,0.1354,0.13,0.1241,0.1205,0.1176,0.1113,0.1102,0.1156,0.1177,0.1138,0.1137,0.1137,0,0.0382,0.043,0.0531,0.0591,0.0642,0.0757,0.0859,0.0986,0.1108,0.1321,0.1419,0.1522,0.1607,0.1559,0.1432,0.1296,0.1276,0.1191,0.1159,0.115,0.1118,0.1091,0.1104,0.1163,0.1163,0.1162,0.1162,0,0.0451,0.0476,0.0553,0.0659,0.0756,0.0876,0.1012,0.1106,0.1266,0.1402,0.1566,0.1649,0.1632,0.1565,0.1397,0.1292,0.1233,0.1176,0.1224,0.1216,0.1145,0.1137,0.1084,0.1159,0.1159,0.116,0.116,0.116,0.0499,0.0564,0.0647,0.0753,0.0857,0.0981,0.107,0.1209,0.1368,0.1556,0.163,0.1739,0.1669,0.1474,0.1375,0.1214,0.1183,0.1156,0.1153,0.1131,0.1162,0.1062,0.1077,0.1077,0.1077,0.1076,0.1076,0,0.0565,0.0639,0.0744,0.0864,0.0966,0.101,0.1172,0.1254,0.1396,0.1567,0.1686,0.1693,0.163,0.1508,0.129,0.122,0.1197,0.1195,0.1209,0.123,0.1207,0.1223,0.1205,0.1205,0.1205,0.1204,0.1204,0.1204,0.0614,0.0716,0.0768,0.0926,0.1006,0.1124,0.1197,0.1306,0.142,0.1554,0.1601,0.1657,0.1595,0.1393,0.1301,0.1279,0.1308,0.1242,0.1265,0.1294,0.1292,0.129,0.131,0.131,0.131,0.1314,0.1314,0.1314]}],[{"header":{"parameterUnit":"m.s-1","parameterCategory":2,"la1":30.2991,"la2":30.254,"lo1":-89.0895,"lo2":-89.0444,"dy":0.0017,"dx":0.0017,"nx":28,"ny":28,"refTime":"2025-07-24T03:00:00:Z","depth":"2","parameterNumber":2,"parameterNumberName":"U-component_of_CURRENTS"},"data":[0,0,0,0,0,0,0,0,0,0,0,0,0,0,0,0,0,0,0,0,0,0,0,0,0,0,0,0,0,0,0,0,0,0,0,0,0,0,0,0,0,0,0,0,0,0,0,0,0,0,0,0,0,0,0,0,0,0,0.1344,0.1344,0,0.135,0.135,0.135,0.1346,0.1346,0.1346,0.1345,0.1351,0.1352,0.1352,0,0,0,0,0,0,0,0,0,0,0,0,0,0.1355,0.1355,0.1344,0.1344,0.1344,0.135,0.135,0.135,0.1346,0.1346,0.1345,0.1345,0.1351,0.1352,0.1352,0,0,0,0,0,0,0,0,0,0,0,0,0,0.1355,0.1355,0.1344,0.1342,0.1342,0.135,0.135,0.135,0.1346,0.1346,0.1345,0.1345,0.1351,0.1352,0.1352,0.1363,0,0,0.1354,0.1354,0,0,0,0,0,0,0,0,0.1355,0.1355,0.1342,0.1342,0.1342,0.1346,0.1356,0.1354,0.1346,0.1345,0.1345,0.1345,0.1349,0.135,0.1353,0.1363,0.1363,0.1354,0.1354,0.1354,0.1355,0,0,0,0,0,0,0,0.1355,0.1355,0.1347,0.1342,0.1342,0.135,0.1349,0.1356,0.135,0.1345,0.1345,0.1345,0.1349,0.1352,0.1353,0.1363,0.1354,0.1354,0.1355,0.1355,0.1473,0.1475,0,0,0,0,0,0,0.1352,0.1354,0.1346,0.1347,0.1347,0.135,0.1349,0.1346,0.135,0.135,0.1345,0.1344,0.1352,0.1352,0.1353,0.1426,0.1354,0.1355,0.1355,0.147,0.1473,0.1476,0,0,0,0,0,0,0.1352,0.1351,0.1346,0.135,0.135,0.135,0.1346,0.1346,0.135,0.1349,0.1349,0.1348,0.1351,0.1352,0.1367,0.1423,0.1355,0.1356,0.1466,0.1471,0.1475,0.1532,0,0,0,0,0,0,0.1352,0.1351,0.135,0.135,0.135,0.1355,0.1346,0.1346,0.135,0.1349,0.1352,0.1353,0.1351,0.1367,0.1368,0.1423,0.1356,0.1463,0.1468,0.1473,0.1527,0.1538,0.1547,0,0,0,0,0,0.1353,0.1353,0.1349,0.1349,0.1347,0.1355,0.1356,0.1355,0.135,0.1357,0.1361,0.1352,0.1402,0.1368,0.1369,0.1426,0.146,0.1467,0.1473,0.1522,0.1536,0.1547,0,0,0,0,0,0,0.1359,0.1353,0.1349,0.1347,0.1352,0.1355,0.1362,0.1358,0.1366,0.1369,0.1364,0.1365,0.1408,0.1408,0.137,0.1481,0.144,0.1447,0.1478,0.149,0.15,0.1527,0.1357,0,0,0,0,0,0.1359,0.1358,0.1356,0.1357,0.1361,0.1362,0.1365,0.1366,0.1371,0.1374,0.1375,0.1397,0.1437,0.1451,0.1473,0.1514,0.1545,0.1562,0.1572,0.1581,0.1607,0.1745,0.177,0.1497,0.1497,0.1497,0,0,0.1361,0.1359,0.1357,0.1358,0.1364,0.1389,0.1364,0.1375,0.1407,0.1375,0.1413,0.1422,0.1455,0.1511,0.1533,0.1514,0.166,0.1589,0.1595,0.1618,0.1754,0.1781,0.1805,0.1501,0.15,0.15,0,0,0.138,0.1366,0.138,0.1389,0.1399,0.1406,0.141,0.1415,0.1428,0.1455,0.1465,0.1506,0.1532,0.1586,0.1616,0.1698,0.1707,0.1708,0.1782,0.1915,0.1939,0.1961,0.1966,0.1988,0.1717,0.1718,0.1718,0,0.1386,0.141,0.1386,0.1412,0.144,0.1418,0.1463,0.1471,0.1481,0.1517,0.1477,0.158,0.1585,0.1705,0.1732,0.1724,0.176,0.1725,0.193,0.1952,0.1974,0.1974,0.1998,0.1721,0.1721,0.172,0.172,0,0.1422,0.1451,0.1464,0.1496,0.1513,0.1549,0.1561,0.158,0.1586,0.1608,0.1695,0.1704,0.178,0.179,0.1779,0.1944,0.1901,0.1921,0.1895,0.2005,0.1997,0.202,0.1726,0.1725,0.1724,0.1723,0,0,0.1428,0.1484,0.1493,0.154,0.1573,0.1596,0.1652,0.1719,0.1781,0.1783,0.1887,0.1937,0.1944,0.1981,0.1985,0.2079,0.2215,0.2064,0.2069,0.206,0.2435,0.2204,0.2206,0.2286,0.2293,0.2297,0.2343,0,0.1482,0.1562,0.1576,0.1669,0.1721,0.1737,0.1797,0.1845,0.1882,0.1962,0.2001,0.2087,0.202,0.2069,0.2156,0.2228,0.2293,0.2196,0.2339,0.2341,0.2119,0.2233,0.201,0.2018,0.2365,0.2369,0.2372,0,0.1531,0.1583,0.1691,0.179,0.1814,0.1862,0.1976,0.2025,0.212,0.2152,0.2234,0.2259,0.2383,0.2315,0.248,0.2427,0.2439,0.246,0.2464,0.2257,0.2157,0.1982,0.2048,0.2411,0.2408,0.2405,0.2402,0,0.1582,0.1673,0.1776,0.1807,0.19,0.196,0.2007,0.2094,0.2164,0.229,0.235,0.2478,0.2541,0.2638,0.2629,0.2603,0.2779,0.2756,0.2538,0.2517,0.2359,0.2313,0.2887,0.2887,0.2887,0.2887,0.2887,0,0.1664,0.1744,0.1806,0.1867,0.1983,0.2015,0.2147,0.2202,0.2308,0.2396,0.2457,0.254,0.264,0.2716,0.2719,0.2674,0.2857,0.2569,0.255,0.2357,0.2314,0.2692,0.2669,0.2889,0.2888,0.2888,0.2888,0,0.1739,0.1784,0.1892,0.1986,0.2022,0.21,0.2213,0.2288,0.2375,0.2494,0.2544,0.2646,0.27,0.2724,0.2846,0.2746,0.2765,0.2693,0.2376,0.2316,0.2378,0.2358,0.2484,0.2477,0.2472,0.2467,0.2462,0,0.1812,0.1867,0.1968,0.2023,0.2079,0.218,0.2242,0.2327,0.2386,0.2533,0.2582,0.2667,0.264,0.2661,0.2554,0.2479,0.2613,0.2217,0.2126,0.2387,0.2356,0.2344,0.2332,0.1918,0.1909,0.1903,0.1897,0,0.1921,0.1933,0.2,0.2097,0.2171,0.2243,0.2321,0.2366,0.2441,0.2504,0.2564,0.2562,0.2487,0.2272,0.2116,0.2067,0.2212,0.2066,0.2543,0.2017,0.1847,0.1817,0.1826,0.1837,0.1843,0.1847,0.1851,0.1853,0.1987,0.2012,0.2061,0.2146,0.2225,0.2249,0.2283,0.2309,0.2342,0.2325,0.2409,0.2256,0.2143,0.1742,0.1651,0.1578,0.1739,0.1661,0.1687,0.1719,0.1609,0.1435,0.1321,0.1323,0.1326,0.1328,0.133,0,0.2039,0.2044,0.2103,0.2155,0.2198,0.2276,0.2296,0.2255,0.2214,0.2099,0.2056,0.1651,0.1412,0.1344,0.1095,0.1015,0.1069,0.0991,0.1072,0.113,0.1182,0.105,0.0611,0.0609,0.0608,0.0606,0,0,0.2063,0.2076,0.2045,0.208,0.2159,0.2188,0.2191,0.2104,0.1974,0.1657,0.1448,0.1387,0.129,0.0934,0.0847,0.071,0.0941,0.067,0.1245,0.1403,0.1454,0.1553,0.1411,0,0,0,0,0]},{"header":{"parameterUnit":"m.s-1","parameterCategory":2,"la1":30.2991,"la2":30.254,"lo1":-89.0895,"lo2":-89.0444,"dy":0.0017,"dx":0.0017,"nx":28,"ny":28,"refTime":"2025-07-24T03:00:00:Z","depth":"2","parameterNumber":3,"parameterNumberName":"V-component_of_CURRENTS"},"data":[0,0,0,0,0,0,0,0,0,0,0,0,0,0,0,0,0,0,0,0,0,0,0,0,0,0,0,0,0,0,0,0,0,0,0,0,0,0,0,0,0,0,0,0,0,0,0,0,0,0,0,0,0,0,0,0,0,0,0.0032,0.0032,0,0.0071,0.0072,0.0072,0.0089,0.0089,0.0089,0.0089,0.0104,0.0105,0.0105,0,0,0,0,0,0,0,0,0,0,0,0,0,-0.0022,-0.0022,0.0032,0.0032,0.0033,0.0071,0.0072,0.0072,0.0089,0.0089,0.0089,0.0089,0.0104,0.0105,0.0106,0,0,0,0,0,0,0,0,0,0,0,0,0,0.0007,-0.0021,0.0032,0.0046,0.0047,0.0071,0.0072,0.0072,0.0089,0.0089,0.0089,0.0089,0.0104,0.0105,0.0106,0.0112,0,0,0.0108,0.0108,0,0,0,0,0,0,0,0,0.0006,0.0009,0.0043,0.0045,0.0047,0.0075,0.0058,0.0085,0.0089,0.0073,0.0089,0.0089,0.0092,0.0094,0.0102,0.0113,0.0114,0.0108,0.0108,0.0109,0.0109,0,0,0,0,0,0,0,0.0004,0.0008,0.0048,0.0044,0.0046,0.0052,0.0056,0.0063,0.0083,0.0075,0.0076,0.008,0.0093,0.0102,0.0103,0.0114,0.0108,0.0109,0.0109,0.0109,0.0203,0.0205,0,0,0,0,0,0,-0.0001,0.0006,0.0046,0.0049,0.0025,0.0053,0.0058,0.0066,0.0083,0.0086,0.008,0.0081,0.01,0.0102,0.0103,0.0174,0.0109,0.0109,0.011,0.0201,0.0203,0.0205,0,0,0,0,0,0,-0.0003,0.0002,0.0045,0.0028,0.0034,0.0054,0.0063,0.0067,0.0078,0.0088,0.009,0.0088,0.01,0.0102,0.0125,0.0173,0.011,0.011,0.0198,0.0201,0.0204,0.0277,0,0,0,0,0,0,-0.0004,0.0001,0.0006,0.0028,0.0034,0.0066,0.0064,0.0068,0.008,0.0082,0.0095,0.0096,0.01,0.0124,0.0126,0.0172,0.0111,0.0196,0.02,0.0203,0.0272,0.0282,0.029,0,0,0,0,0,-0.0006,0.0003,0.0006,0.0011,0.004,0.0067,0.0071,0.0085,0.0081,0.0093,0.0106,0.0096,0.0151,0.0126,0.0128,0.0176,0.0194,0.0199,0.0203,0.0267,0.028,0.029,0,0,0,0,0,0,-0.0018,0.0006,0.001,0.0026,0.0047,0.007,0.0082,0.0086,0.0105,0.0107,0.011,0.0113,0.0155,0.0152,0.0125,0.0216,0.0175,0.018,0.0224,0.0235,0.0245,0.0261,0.0112,0,0,0,0,0,-0.0019,-0.0005,0.0018,0.0031,0.0043,0.0061,0.0072,0.0082,0.0101,0.0109,0.0121,0.0142,0.0176,0.0192,0.021,0.025,0.0236,0.0287,0.0296,0.0304,0.032,0.035,0.0363,0.022,0.022,0.022,0,0,-0.0021,-0.0006,0.0002,0.003,0.0047,0.0082,0.0068,0.0091,0.0129,0.0108,0.0158,0.0167,0.0191,0.0245,0.0265,0.0249,0.0331,0.031,0.0316,0.0328,0.0356,0.037,0.0382,0.0223,0.0223,0.0222,0,0,-0.0005,-0.0001,0.0023,0.0046,0.0075,0.0092,0.0099,0.0127,0.0149,0.0192,0.0198,0.0238,0.0272,0.0315,0.0338,0.0409,0.0374,0.0412,0.048,0.0509,0.0521,0.0531,0.0498,0.0504,0.0424,0.0424,0.0424,0,-0.0008,0.003,0.0034,0.0071,0.0098,0.01,0.0143,0.017,0.0204,0.0226,0.0219,0.03,0.0318,0.0403,0.044,0.0433,0.0415,0.0433,0.0521,0.0531,0.054,0.0504,0.051,0.0428,0.0428,0.0427,0.0427,0,0.0036,0.0069,0.0086,0.0138,0.0164,0.0198,0.0236,0.0262,0.0281,0.0307,0.0377,0.041,0.0466,0.0483,0.049,0.0576,0.0527,0.0521,0.0489,0.0559,0.0515,0.0521,0.0434,0.0432,0.0431,0.043,0,0,0.0032,0.0104,0.0113,0.0134,0.0204,0.0215,0.0293,0.0349,0.04,0.043,0.0511,0.0575,0.0583,0.0613,0.0628,0.0662,0.0709,0.0628,0.0628,0.0588,0.0724,0.0698,0.07,0.0714,0.0716,0.0718,0.0654,0,0.0072,0.0133,0.0179,0.0236,0.0265,0.0306,0.0371,0.0416,0.0483,0.0557,0.0594,0.0683,0.0638,0.0698,0.0717,0.0744,0.0733,0.0724,0.0669,0.0667,0.0631,0.0711,0.0692,0.0636,0.0659,0.066,0.0661,0,0.012,0.0141,0.0216,0.0264,0.0283,0.0337,0.0428,0.0497,0.0606,0.0657,0.0739,0.0784,0.0876,0.0828,0.0853,0.0847,0.0785,0.0765,0.0762,0.0723,0.0654,0.0578,0.0645,0.067,0.0669,0.0668,0.0668,0,0.0101,0.0169,0.022,0.0244,0.0311,0.0362,0.0416,0.0529,0.0611,0.0768,0.0846,0.0918,0.1017,0.0964,0.0943,0.0909,0.0936,0.0882,0.0765,0.0758,0.0728,0.0717,0.085,0.085,0.085,0.0851,0.0851,0,0.0141,0.0169,0.0212,0.0237,0.028,0.0351,0.046,0.0533,0.0695,0.0814,0.0909,0.1009,0.1066,0.1094,0.0989,0.0919,0.0966,0.0794,0.0766,0.0748,0.074,0.0763,0.0754,0.0848,0.0849,0.0849,0.085,0,0.013,0.0188,0.0204,0.0253,0.0287,0.0318,0.0477,0.0563,0.0719,0.0903,0.0973,0.113,0.1181,0.1163,0.1136,0.102,0.0931,0.0861,0.0815,0.0785,0.0696,0.0692,0.0729,0.0728,0.0728,0.0727,0.0726,0,0.0148,0.0146,0.0174,0.0208,0.0251,0.0328,0.0408,0.0565,0.0686,0.0947,0.1024,0.1184,0.1254,0.1196,0.1089,0.0933,0.0902,0.078,0.0721,0.0728,0.0696,0.0693,0.0689,0.0678,0.0677,0.0676,0.0676,0,0.0078,0.0075,0.0072,0.0153,0.0235,0.0303,0.0441,0.054,0.0764,0.0918,0.1114,0.1213,0.1242,0.1158,0.1015,0.0879,0.0823,0.0756,0.0827,0.0721,0.0678,0.0647,0.0646,0.0669,0.067,0.067,0.0671,0.0671,-0.0004,-0.0046,-0.0035,0.0051,0.0164,0.0281,0.0415,0.0557,0.0734,0.1041,0.1112,0.1246,0.1217,0.1017,0.0877,0.0741,0.0742,0.0643,0.0646,0.065,0.0666,0.0626,0.0605,0.0605,0.0605,0.0605,0.0605,0,-0.012,-0.0149,-0.0124,-0.0016,0.0121,0.0248,0.0448,0.0586,0.0821,0.1009,0.1213,0.1096,0.1022,0.0935,0.0727,0.0607,0.0594,0.0546,0.0558,0.0565,0.0572,0.0584,0.0501,0.05,0.05,0.0499,0,0,-0.0194,-0.0235,-0.0231,-0.0083,0.0089,0.0357,0.0535,0.0693,0.0835,0.0998,0.1093,0.1224,0.1061,0.0873,0.0743,0.0624,0.0614,0.0587,0.0682,0.0722,0.0729,0.0639,0.0669,0,0,0,0,0]}],[{"header":{"parameterUnit":"m.s-1","parameterCategory":2,"la1":30.2991,"la2":30.254,"lo1":-89.0895,"lo2":-89.0444,"dy":0.0017,"dx":0.0017,"nx":28,"ny":28,"refTime":"2025-07-24T03:00:00:Z","depth":"4","parameterNumber":2,"parameterNumberName":"U-component_of_CURRENTS"},"data":[0,0,0,0,0,0,0,0,0,0,0,0,0,0,0,0,0,0,0,0,0,0,0,0,0,0,0,0,0,0,0,0,0,0,0,0,0,0,0,0,0,0,0,0,0,0,0,0,0,0,0,0,0,0,0,0,0,0,0.06,0.06,0,0.0591,0.0591,0.0591,0.0604,0.0604,0.0604,0.0605,0.0687,0.0689,0.0691,0,0,0,0,0,0,0,0,0,0,0,0,0,0.0639,0.0638,0.06,0.06,0.0599,0.0591,0.0591,0.0591,0.0604,0.0604,0.0604,0.0605,0.0687,0.0689,0.0691,0,0,0,0,0,0,0,0,0,0,0,0,0,0.0626,0.0638,0.06,0.0604,0.0604,0.0591,0.0591,0.0591,0.0603,0.0604,0.0605,0.0605,0.0686,0.0689,0.0692,0.0698,0,0,0.07,0.0701,0,0,0,0,0,0,0,0,0.0627,0.0625,0.0604,0.0604,0.0604,0.0598,0.0635,0.0631,0.0603,0.0605,0.0605,0.0605,0.0665,0.0669,0.0667,0.0702,0.0705,0.07,0.0702,0.0703,0.0704,0,0,0,0,0,0,0,0.0627,0.0625,0.0597,0.0603,0.0604,0.061,0.0609,0.0634,0.0634,0.0605,0.0605,0.0603,0.0666,0.0664,0.0669,0.0706,0.07,0.0703,0.0704,0.0705,0.0819,0.082,0,0,0,0,0,0,0.0625,0.0626,0.0598,0.0597,0.0616,0.0609,0.0607,0.06,0.0632,0.0636,0.0602,0.0603,0.0659,0.0666,0.0672,0.0736,0.0703,0.0706,0.0707,0.0818,0.0819,0.0821,0,0,0,0,0,0,0.0626,0.0623,0.0598,0.0611,0.0608,0.0607,0.0599,0.06,0.0621,0.0629,0.0635,0.0626,0.066,0.0668,0.0712,0.0738,0.0707,0.071,0.0816,0.0818,0.082,0.083,0,0,0,0,0,0,0.0627,0.0623,0.0627,0.061,0.0607,0.0606,0.0598,0.0599,0.0617,0.0619,0.0651,0.0658,0.0661,0.0708,0.0715,0.0741,0.0712,0.0814,0.0817,0.0819,0.0828,0.0832,0.0835,0,0,0,0,0,0.0628,0.062,0.0627,0.0625,0.0609,0.0606,0.0606,0.0608,0.0618,0.063,0.0652,0.0658,0.0729,0.0711,0.0719,0.0746,0.0813,0.0816,0.0819,0.0826,0.0831,0.0835,0,0,0,0,0,0,0.0639,0.062,0.0628,0.0616,0.0623,0.0609,0.0616,0.0623,0.0648,0.066,0.0672,0.068,0.0731,0.074,0.0719,0.0788,0.0774,0.0779,0.0777,0.0782,0.0785,0.08,0.0714,0,0,0,0,0,0.0644,0.0635,0.0629,0.0625,0.063,0.0633,0.0637,0.0642,0.0653,0.0665,0.0686,0.0714,0.0745,0.0764,0.0791,0.0826,0.0844,0.0851,0.0855,0.0858,0.0877,0.0919,0.0928,0.0831,0.0831,0.0831,0,0,0.0648,0.0637,0.0634,0.0628,0.0634,0.0633,0.0638,0.065,0.0657,0.0672,0.0702,0.0734,0.076,0.0797,0.0821,0.081,0.0894,0.0862,0.0864,0.0882,0.0923,0.0932,0.0941,0.0833,0.0832,0.0832,0,0,0.0641,0.0646,0.0637,0.064,0.0649,0.0652,0.0663,0.067,0.0686,0.0718,0.0733,0.0779,0.0821,0.0838,0.0853,0.0898,0.0916,0.0916,0.0943,0.0982,0.0991,0.0998,0.1021,0.103,0.0912,0.0912,0.0912,0,0.0655,0.0627,0.0639,0.0631,0.0626,0.0662,0.0654,0.0678,0.0701,0.0724,0.0735,0.082,0.0837,0.0887,0.0903,0.0906,0.0933,0.0917,0.0987,0.0995,0.1002,0.1023,0.1034,0.0913,0.0913,0.0913,0.0913,0,0.0631,0.0618,0.0616,0.0614,0.0623,0.0621,0.0648,0.0675,0.0709,0.0741,0.0816,0.0852,0.0901,0.0918,0.0926,0.0993,0.0996,0.0987,0.0971,0.1012,0.1032,0.1043,0.0914,0.0914,0.0914,0.0914,0,0,0.0629,0.0602,0.0603,0.058,0.0606,0.0597,0.0635,0.0668,0.0697,0.0768,0.0803,0.0887,0.0938,0.0961,0.0986,0.1031,0.1095,0.1041,0.1043,0.1057,0.1187,0.104,0.1037,0.1106,0.1109,0.111,0.1174,0,0.0607,0.056,0.0568,0.0539,0.0511,0.0553,0.0581,0.0631,0.0691,0.0741,0.083,0.089,0.0945,0.0974,0.1035,0.108,0.1127,0.1079,0.1152,0.1154,0.1012,0.1045,0.1118,0.1182,0.1185,0.1186,0.1188,0,0.0565,0.0536,0.0491,0.0466,0.0466,0.0472,0.051,0.0546,0.0653,0.0712,0.0818,0.0886,0.0985,0.1005,0.1147,0.1121,0.1167,0.1204,0.1207,0.1077,0.1027,0.1137,0.1207,0.1205,0.1204,0.1202,0.1201,0,0.0487,0.047,0.042,0.0411,0.0415,0.0418,0.0447,0.0543,0.0601,0.0704,0.0765,0.0893,0.0964,0.1058,0.1146,0.1162,0.1269,0.1282,0.1199,0.1189,0.1298,0.129,0.1377,0.1377,0.1377,0.1377,0.1377,0,0.0403,0.0359,0.0383,0.0333,0.0327,0.0363,0.0397,0.0448,0.0567,0.0645,0.0758,0.0827,0.0991,0.1067,0.1139,0.1187,0.1266,0.1215,0.1199,0.1298,0.129,0.1304,0.1295,0.1379,0.1379,0.1378,0.1378,0,0.0278,0.0291,0.0233,0.0247,0.0267,0.0263,0.0366,0.0412,0.053,0.0624,0.0664,0.0817,0.0921,0.1031,0.1159,0.1165,0.1213,0.1203,0.1284,0.1269,0.1119,0.111,0.1147,0.1143,0.1139,0.1136,0.1133,0,0.02,0.0147,0.016,0.0174,0.0176,0.0214,0.0263,0.0383,0.0449,0.0608,0.0638,0.0769,0.0859,0.0926,0.1038,0.1128,0.1133,0.1135,0.1165,0.1116,0.1098,0.1095,0.1091,0.1127,0.1126,0.1125,0.1124,0,0.0048,0.0059,0.0035,0.0067,0.0104,0.0151,0.0221,0.0272,0.042,0.052,0.0608,0.0677,0.0771,0.0871,0.0922,0.0991,0.1119,0.1095,0.1106,0.1135,0.1092,0.1077,0.1077,0.111,0.1112,0.1113,0.1114,0,-0.0032,-0.0047,-0.0043,-0.0013,0.003,0.0084,0.0131,0.022,0.0307,0.0487,0.0498,0.0632,0.0745,0.0797,0.0841,0.0884,0.0921,0.091,0.0931,0.0947,0.0852,0.0766,0.0678,0,0,0,0,0,-0.0086,-0.0095,-0.0103,-0.0063,-0.0031,0.0008,0.0111,0.0181,0.0312,0.0352,0.044,0.0516,0.0615,0.0675,0.0697,0.0779,0.0922,0.0797,0.0918,0.1036,0.1051,0.0958,0,0,0,0,0,0,-0.0121,-0.0131,-0.0126,-0.0113,-0.0087,-0.0035,0.0031,0.0125,0.0162,0.0291,0.0352,0.0441,0.0553,0.0594,0.067,0.0692,0.0749,0.0878,0.0876,0.1027,0.1041,0.1053,0.0963,0,0,0,0,0]},{"header":{"parameterUnit":"m.s-1","parameterCategory":2,"la1":30.2991,"la2":30.254,"lo1":-89.0895,"lo2":-89.0444,"dy":0.0017,"dx":0.0017,"nx":28,"ny":28,"refTime":"2025-07-24T03:00:00:Z","depth":"4","parameterNumber":3,"parameterNumberName":"V-component_of_CURRENTS"},"data":[0,0,0,0,0,0,0,0,0,0,0,0,0,0,0,0,0,0,0,0,0,0,0,0,0,0,0,0,0,0,0,0,0,0,0,0,0,0,0,0,0,0,0,0,0,0,0,0,0,0,0,0,0,0,0,0,0,0,-0.0081,-0.0081,0,-0.0071,-0.0071,-0.0071,-0.0073,-0.0073,-0.0073,-0.0073,-0.0089,-0.0089,-0.009,0,0,0,0,0,0,0,0,0,0,0,0,0,-0.0099,-0.0099,-0.0081,-0.0081,-0.0081,-0.0071,-0.0071,-0.0071,-0.0073,-0.0073,-0.0073,-0.0073,-0.0089,-0.0089,-0.009,0,0,0,0,0,0,0,0,0,0,0,0,0,-0.0092,-0.0099,-0.0081,-0.008,-0.008,-0.0071,-0.0071,-0.0071,-0.0073,-0.0073,-0.0073,-0.0073,-0.0089,-0.0089,-0.009,-0.009,0,0,-0.0091,-0.0092,0,0,0,0,0,0,0,0,-0.0092,-0.0091,-0.008,-0.008,-0.008,-0.0073,-0.0083,-0.0078,-0.0073,-0.0077,-0.0073,-0.0074,-0.0085,-0.0086,-0.0085,-0.0091,-0.0091,-0.0091,-0.0092,-0.0092,-0.0092,0,0,0,0,0,0,0,-0.0093,-0.0091,-0.0078,-0.008,-0.008,-0.0079,-0.0078,-0.0082,-0.0082,-0.0076,-0.0076,-0.0073,-0.0085,-0.0084,-0.0085,-0.0092,-0.0091,-0.0092,-0.0092,-0.0092,-0.0118,-0.0119,0,0,0,0,0,0,-0.0092,-0.0092,-0.0079,-0.0078,-0.0085,-0.0078,-0.0077,-0.0076,-0.0081,-0.0081,-0.0073,-0.0074,-0.0083,-0.0085,-0.0086,-0.0096,-0.0092,-0.0092,-0.0093,-0.0118,-0.0118,-0.0119,0,0,0,0,0,0,-0.0092,-0.0091,-0.0079,-0.0084,-0.0082,-0.0078,-0.0076,-0.0075,-0.0076,-0.0078,-0.0079,-0.0074,-0.0084,-0.0085,-0.0092,-0.0096,-0.0093,-0.0093,-0.0118,-0.0118,-0.0119,-0.011,0,0,0,0,0,0,-0.0093,-0.0091,-0.0092,-0.0084,-0.0082,-0.0078,-0.0075,-0.0075,-0.0073,-0.0074,-0.0079,-0.0081,-0.0084,-0.0091,-0.0092,-0.0097,-0.0093,-0.0117,-0.0118,-0.0119,-0.011,-0.011,-0.011,0,0,0,0,0,-0.0093,-0.0091,-0.0092,-0.009,-0.0082,-0.0078,-0.0077,-0.0075,-0.0073,-0.0075,-0.0078,-0.0081,-0.0097,-0.0091,-0.0093,-0.0098,-0.0117,-0.0118,-0.0118,-0.0109,-0.011,-0.011,0,0,0,0,0,0,-0.0102,-0.0091,-0.0091,-0.0087,-0.0085,-0.0078,-0.0078,-0.0075,-0.0078,-0.0079,-0.0082,-0.0083,-0.0093,-0.0097,-0.0091,-0.0109,-0.0109,-0.011,-0.0102,-0.0102,-0.0103,-0.0089,-0.0094,0,0,0,0,0,-0.0103,-0.0099,-0.0092,-0.0091,-0.0088,-0.0084,-0.0082,-0.008,-0.0079,-0.008,-0.0084,-0.0091,-0.0098,-0.0101,-0.0109,-0.0114,-0.0107,-0.0121,-0.0121,-0.0121,-0.0112,-0.0104,-0.0102,-0.0122,-0.0122,-0.0122,0,0,-0.0107,-0.01,-0.0099,-0.0092,-0.009,-0.0086,-0.0083,-0.008,-0.008,-0.0082,-0.0086,-0.0093,-0.01,-0.0108,-0.0113,-0.0111,-0.0114,-0.0123,-0.0123,-0.0113,-0.0105,-0.0103,-0.0101,-0.0122,-0.0122,-0.0122,0,0,-0.011,-0.0106,-0.0103,-0.0099,-0.0093,-0.009,-0.0089,-0.0084,-0.0085,-0.009,-0.0092,-0.0094,-0.0111,-0.0109,-0.0112,-0.0119,-0.0118,-0.0132,-0.0119,-0.0112,-0.0109,-0.0107,-0.0099,-0.0096,-0.013,-0.013,-0.013,0,-0.0117,-0.0102,-0.0104,-0.0097,-0.0081,-0.0091,-0.0076,-0.0088,-0.0087,-0.0078,-0.0094,-0.0097,-0.0108,-0.01,-0.0109,-0.0118,-0.0115,-0.0115,-0.011,-0.0108,-0.0106,-0.0098,-0.0095,-0.0129,-0.0129,-0.0129,-0.013,0,-0.0114,-0.01,-0.0096,-0.0088,-0.008,-0.0067,-0.0073,-0.0071,-0.0075,-0.0081,-0.0079,-0.0092,-0.0087,-0.0101,-0.011,-0.0102,-0.0106,-0.0112,-0.0105,-0.0103,-0.0096,-0.0093,-0.0129,-0.0129,-0.0129,-0.0129,0,0,-0.0124,-0.0096,-0.0094,-0.0061,-0.0061,-0.0041,-0.0048,-0.0035,-0.0016,-0.0049,-0.0026,-0.0055,-0.0061,-0.0064,-0.0074,-0.0075,-0.0069,-0.0091,-0.0091,-0.0075,-0.0054,-0.0051,-0.0048,-0.0077,-0.0077,-0.0076,-0.0054,0,-0.0112,-0.0073,-0.0071,-0.0027,0.0006,0.0008,0.0017,0.0019,0.0009,0.0014,-0.0013,-0.001,-0.0051,-0.0039,-0.0053,-0.0064,-0.0061,-0.0074,-0.0064,-0.0063,-0.0055,-0.0044,-0.0075,-0.0052,-0.0051,-0.0051,-0.0051,0,-0.0103,-0.0063,-0.0012,0.0058,0.0072,0.0084,0.0136,0.0142,0.0124,0.0111,0.009,0.0062,0.0045,0.0013,-0.0008,-0.0018,-0.0033,-0.0046,-0.0045,-0.0041,-0.0055,-0.0054,-0.0045,-0.0046,-0.0046,-0.0046,-0.0047,0,-0.006,-0.0015,0.0045,0.0063,0.0118,0.0149,0.0174,0.0177,0.0203,0.0172,0.0175,0.0135,0.0131,0.0091,0.004,0.002,0.0023,-0.0005,-0.0012,-0.0012,-0.0024,-0.0027,-0.0002,-0.0002,-0.0002,-0.0002,-0.0002,0,-0.002,0.003,0.0072,0.0117,0.0195,0.021,0.0282,0.028,0.0291,0.0307,0.0233,0.0226,0.015,0.0128,0.0071,0.0039,0.0048,0.0,-0.0002,-0.0023,-0.0025,-0.0022,-0.0025,-0.0001,-0.0001,-0.0002,-0.0002,0,0.0034,0.0049,0.0136,0.0205,0.0223,0.0286,0.0356,0.0397,0.0387,0.0402,0.0393,0.0318,0.0267,0.0208,0.0156,0.01,0.0061,0.0055,0.0049,0.0045,0.0012,0.0009,0.0042,0.0042,0.0043,0.0043,0.0043,0,0.0069,0.012,0.021,0.0244,0.0278,0.036,0.0405,0.0436,0.0452,0.0444,0.0434,0.0404,0.034,0.0269,0.0193,0.0116,0.0098,0.0081,0.0027,0.0024,0.0018,0.0015,0.0012,0.0044,0.0044,0.0044,0.0044,0,0.0153,0.0181,0.0244,0.031,0.0361,0.0449,0.0495,0.0508,0.0519,0.0531,0.047,0.041,0.0362,0.0267,0.023,0.016,0.0084,0.0083,0.0081,0.003,0.0026,0.0019,0.0016,0.0045,0.0045,0.0045,0.0045,0,0.0204,0.0246,0.0296,0.0359,0.0423,0.047,0.0517,0.052,0.0549,0.0507,0.0492,0.0417,0.0386,0.0292,0.024,0.0191,0.0157,0.0115,0.0111,0.0109,0.0109,0.0112,0.0167,0,0,0,0,0,0.0247,0.027,0.0328,0.0384,0.0456,0.0494,0.0532,0.0557,0.0554,0.0518,0.0505,0.0446,0.0351,0.0299,0.0251,0.0236,0.0149,0.0175,0.0099,0.0051,0.0049,0.0038,0,0,0,0,0,0,0.0258,0.0307,0.0321,0.0388,0.0432,0.051,0.0535,0.0544,0.051,0.0492,0.0442,0.0435,0.0345,0.0395,0.0255,0.0239,0.018,0.0143,0.0142,0.0051,0.005,0.0049,0.0037,0,0,0,0,0]}]]